Printer-friendly version

IAU Minor Planet Center

Minor Planet Center

MPEC 2006-W91 : 2006 WB30

The following Minor Planet Electronic Circular may be linked-to from your own Web pages, but must not otherwise be redistributed electronically.


Read MPEC 2006-W90 Read MPEC 2006-W92


M.P.E.C. 2006-W91                                Issued 2006 Nov. 26, 03:06 UT

     The Minor Planet Electronic Circulars contain information on unusual
         minor planets and routine data on comets.  They are published
   on behalf of Commission 20 of the International Astronomical Union by the
          Minor Planet Center, Smithsonian Astrophysical Observatory,
                          Cambridge, MA 02138, U.S.A.

             Prepared using the Tamkin Foundation Computer Network

                              MPC@CFA.HARVARD.EDU
          URL http://cfa-www.harvard.edu/iau/mpc.html  ISSN 1523-6714

                                   2006 WB30

Observations:
     K06W30B* C2006 11 24.35712 04 30 44.53 +13 17 08.8          21.0 V EW091G96
     K06W30B  C2006 11 24.36324 04 30 46.72 +13 17 36.7          20.6 V EW091G96
     K06W30B  C2006 11 24.36940 04 30 48.96 +13 18 05.1          21.1 V EW091G96
     K06W30B  C2006 11 24.37559 04 30 51.26 +13 18 32.6          21.3 V EW091G96
     K06W30B  C2006 11 24.39578 04 30 58.68 +13 20 03.8          21.4 V EW091G96
     K06W30B  C2006 11 24.39986 04 31 00.19 +13 20 21.8          20.6 V EW091G96
     K06W30B  C2006 11 24.40392 04 31 01.66 +13 20 39.2          21.4 V EW091G96
     K06W30B  C2006 11 24.40804 04 31 03.14 +13 20 58.5          20.9 V EW091G96
     K06W30B  C2006 11 25.27884 04 37 11.46 +14 27 44.0          20.8 V EW091G96
     K06W30B  C2006 11 25.28477 04 37 13.62 +14 28 11.8          21.2 V EW091G96
     K06W30B  C2006 11 25.29168 04 37 16.24 +14 28 43.8          20.7 V EW091G96
     K06W30B  C2006 11 25.29764 04 37 18.44 +14 29 11.5          20.4 V EW091G96
     K06W30B  C2006 11 25.94326 04 41 53.51 +15 18 20.9                 EW091J95
     K06W30B  C2006 11 25.96030 04 42 00.23 +15 19 39.7                 EW091J95
     K06W30B  C2006 11 25.97618 04 42 06.48 +15 20 55.5          20.7 R EW091J95

Observer details:
G96 Mt. Lemmon Survey.  Observer E. C. Beshore.  Measurers E. C. Beshore,
    E. J. Christensen, G. J. Garradd, A. R. Gibbs, A. D. Grauer, R. E. Hill,
    R. A. Kowalski, S. M. Larson, R. H. McNaught.  1.5-m reflector + CCD.
J95 Great Shefford.  Observer P. Birtwhistle.  0.40-m f/6.0 Schmidt-Cassegrain
    + CCD.

Orbital elements:
2006 WB30                                                Earth MOID = 0.0634 AU
Epoch 2006 Sept. 22.0 TT = JDT 2454000.5                MPC
M 326.86765              (2000.0)            P               Q
n   0.46594768     Peri.  359.84845     +0.33427633     -0.94055807
a   1.6478257      Node    70.62270     +0.86477100     +0.28074491
e   0.3628193      Incl.    3.65163     +0.37474051     +0.19113559
P   2.12           H   26.1           G   0.15           U   8
Residuals in seconds of arc
061124 G96  0.3+  0.3-    061124 G96  0.5+  0.0     061125 G96  0.0   0.2+
061124 G96  0.2-  0.1-    061124 G96  0.0   0.9-    061125 G96  0.3-  0.2+
061124 G96  0.3-  0.5+    061124 G96  0.6-  0.0     061125 J95  0.1-  0.4+
061124 G96  0.2+  0.0     061125 G96  0.2+  0.2+    061125 J95  0.0   0.9-
061124 G96  0.4+  0.3+    061125 G96  0.6-  0.4+    061125 J95  0.2+  0.4+

Ephemeris:
2006 WB30                a,e,i = 1.65, 0.36, 4                   q = 1.0500
Date    TT    R. A. (2000) Decl.     Delta      r     Elong.  Phase     V
2006 11 21    04 08.86   +09 11.1    0.0693   1.056   167.9    11.3    21.1
2006 11 23    04 21.65   +11 35.8    0.0675   1.054   169.0    10.3    21.0
2006 11 25    04 35.20   +14 06.9    0.0662   1.052   169.7     9.7    20.9
2006 11 27    04 49.44   +16 41.5    0.0653   1.051   169.7     9.6    20.9
2006 11 29    05 04.24   +19 16.0    0.0650   1.050   169.1    10.2    20.9
2006 12 01    05 19.41   +21 46.8    0.0652   1.050   167.9    11.4    21.0
2006 12 03    05 34.75   +24 10.5    0.0659   1.050   166.3    12.8    21.1
2006 12 05    05 50.05   +26 24.2    0.0670   1.050   164.6    14.5    21.2
2006 12 07    06 05.07   +28 25.9    0.0687   1.051   162.8    16.1    21.3
2006 12 09    06 19.59   +30 14.7    0.0707   1.052   161.1    17.6    21.4
2006 12 11    06 33.44   +31 50.1    0.0732   1.054   159.7    18.9    21.5
2006 12 13    06 46.46   +33 12.6    0.0760   1.056   158.4    20.1    21.6
2006 12 15    06 58.56   +34 22.9    0.0792   1.058   157.4    20.9    21.7
2006 12 17    07 09.68   +35 22.2    0.0826   1.060   156.6    21.6    21.9
2006 12 19    07 19.79   +36 11.6    0.0863   1.063   156.1    22.0    22.0
2006 12 21    07 28.91   +36 52.3    0.0904   1.067   155.8    22.2    22.1

Gareth V. Williams           (C) Copyright 2006 MPC           M.P.E.C. 2006-W91

Read MPEC 2006-W90 Read MPEC 2006-W92


Our Web policy. Index to the CBAT/MPC/ICQ pages.


Valid HTML 4.01!